Theta_e
308 308 308 309 309 309 309 309 309 309 309 309 309 309 309 309 309 309 309 309 309 309 308 308 308 308 308 308 309 309 309 308 308 308 308 308 308 308 309 309 309 309 310 310 310 310 310 310 311 311 310 310 310 310 310 310 311 311 311 312 313 314 314 315 315 315 315 315 315 314 314 314 314 314 315 315 315 315 316 316 316 317 317 318 318 319
307 308 308 308 308 308 309 308 309 308 308 308 308 308 308 308 308 308 308 308 307 307 307 307 307 307 307 307 307 307 308 308 308 308 308 307 308 308 308 308 309 309 309 309 309 310 310 310 310 310 310 310 311 310 311 310 310 310 310 310 311 311 312 312 313 313 313 313 313 313 312 312 312 312 312 313 313 313 313 314 314 315 315 315 316 317
307 307 308 308 308 308 308 308 308 308 308 308 308 308 308 307 307 307 307 306 306 305 305 305 305 306 306 306 306 306 307 307 307 307 307 307 307 307 307 308 308 308 308 309 309 309 309 309 310 310 310 310 310 310 311 311 311 311 311 310 310 310 310 310 310 311 311 311 311 311 311 311 311 311 311 311 311 312 312 313 313 313 314 314 315 316
306 307 307 308 308 308 308 308 308 308 308 308 307 307 307 307 306 306 306 304 303 303 303 303 304 304 305 305 305 305 306 306 306 306 306 306 307 307 307 307 307 307 308 308 308 308 308 309 309 309 309 309 310 310 310 310 310 311 311 311 311 310 310 310 310 309 309 310 310 310 310 310 310 310 310 310 310 310 311 312 312 313 313 313 313 313
306 307 307 308 308 308 308 308 308 307 307 307 307 307 306 306 305 305 304 302 301 300 299 299 300 301 302 303 304 304 304 304 304 304 304 305 305 306 306 306 307 307 307 307 307 307 307 308 308 308 308 308 309 309 309 309 309 310 310 310 310 310 310 310 310 310 309 309 309 309 309 309 309 309 309 309 309 309 309 310 310 311 312 312 312 312
306 307 307 307 307 307 308 307 307 307 307 307 306 306 305 305 304 303 302 300 298 297 296 296 296 297 299 300 301 301 302 302 302 302 302 302 303 304 304 305 305 306 306 306 306 306 306 306 306 306 307 307 307 308 308 308 309 309 309 309 309 309 309 309 310 310 310 309 309 309 308 308 308 308 308 308 308 308 308 308 308 309 309 310 310 310
306 307 307 307 307 307 307 307 307 307 307 306 305 305 304 303 302 301 300 298 297 295 294 294 294 294 295 296 297 297 298 299 300 300 300 300 300 301 301 302 303 304 305 305 305 305 305 304 304 304 304 305 305 306 306 307 307 307 308 308 308 308 308 308 308 308 309 309 309 309 308 308 308 308 308 308 308 308 308 307 307 307 308 308 308 308
306 306 306 307 307 307 307 307 307 306 306 305 304 303 302 300 299 298 297 296 295 294 293 293 293 293 293 293 293 294 295 295 296 297 297 298 298 298 299 299 300 301 302 303 303 304 303 303 302 302 301 301 302 303 304 304 305 306 306 307 307 307 307 307 307 307 307 307 308 308 308 308 308 307 307 307 307 307 307 307 307 307 307 307 307 307
305 305 306 306 307 307 307 307 306 305 304 303 302 300 298 297 296 295 294 293 293 293 293 293 293 293 293 293 293 293 293 293 293 294 294 295 296 296 297 297 298 298 299 300 301 302 302 302 301 300 300 299 299 299 300 301 302 303 304 305 306 306 306 306 306 306 306 306 307 307 307 307 307 307 307 307 307 307 307 307 307 307 306 306 306 306
304 305 305 306 306 306 306 305 304 303 302 300 298 296 295 294 293 292 292 292 292 292 293 293 293 293 293 293 293 294 293 293 293 293 293 294 294 294 295 296 296 297 297 298 298 299 300 300 300 300 300 299 298 297 297 297 298 300 301 302 303 304 305 305 305 305 305 305 306 306 306 306 306 306 306 306 306 306 306 306 306 306 306 306 306 306
304 305 305 306 306 306 305 303 301 299 297 296 295 294 293 292 292 292 292 292 292 293 293 293 293 293 293 294 294 294 294 294 294 294 294 294 294 294 294 294 295 295 296 296 296 297 298 298 299 299 299 299 298 298 297 296 296 297 297 299 300 301 302 303 303 304 304 304 304 304 304 304 305 305 305 305 305 305 305 305 305 305 305 305 305 305
304 304 305 306 306 305 303 300 297 295 294 293 293 292 292 292 292 292 292 292 293 293 293 294 294 294 294 294 294 294 295 295 294 294 294 294 294 294 294 294 294 294 294 295 295 295 296 296 297 297 298 298 298 298 297 296 296 295 295 296 297 297 298 299 300 301 302 302 302 302 302 302 302 303 303 303 303 304 304 304 304 304 305 305 305 305
303 304 304 305 305 304 301 297 295 293 293 292 292 292 292 292 292 292 292 292 293 293 294 294 294 294 294 294 294 294 294 295 295 294 294 294 294 294 294 294 294 294 294 294 294 294 294 294 295 295 296 296 297 297 297 297 296 295 295 295 295 295 295 296 297 298 299 299 300 300 300 300 300 301 301 301 301 302 302 302 303 303 303 304 304 304
304 304 304 305 304 302 298 295 294 292 292 292 292 292 292 292 292 292 293 293 293 294 294 294 294 294 294 294 294 294 294 294 294 294 294 294 294 294 294 294 294 294 294 294 294 294 294 293 293 293 293 294 294 295 295 295 295 295 295 295 294 294 294 294 294 295 295 296 297 298 298 299 299 299 300 300 300 300 300 300 300 300 301 301 302 303
304 304 304 304 302 300 296 294 293 292 292 292 291 291 291 292 292 292 292 293 293 294 294 294 294 294 294 294 294 294 294 294 294 294 293 294 294 294 294 294 294 294 294 294 294 293 293 293 293 293 293 293 293 293 293 293 294 294 294 294 294 294 294 293 293 293 293 294 294 295 296 296 297 298 298 298 299 299 299 299 299 299 299 299 299 299
304 304 304 302 301 298 295 293 292 292 292 291 291 291 291 292 292 292 292 292 292 293 293 293 293 293 294 294 294 294 293 293 293 293 293 293 293 294 294 294 294 294 293 293 293 293 293 293 293 293 293 293 292 292 292 292 292 292 293 293 293 293 293 293 293 293 292 292 293 293 293 294 295 295 296 296 297 297 297 298 298 298 298 298 297 297
305 304 303 302 300 296 293 292 291 291 291 291 291 291 291 291 291 292 292 292 292 292 292 291 291 292 292 293 293 293 293 293 293 292 292 292 293 293 293 293 293 293 293 293 293 293 293 293 293 293 292 292 292 292 292 292 292 292 292 292 292 292 292 292 292 292 292 292 292 292 292 292 293 293 294 294 294 295 295 295 296 296 296 296 296 296
304 304 303 301 298 295 292 292 291 291 291 291 291 290 290 291 291 291 291 291 291 291 291 291 291 291 291 291 292 293 292 292 292 292 292 292 292 292 293 293 293 293 292 292 292 292 292 292 292 292 292 292 292 292 292 292 292 292 291 292 292 292 292 292 292 292 292 292 292 292 292 292 292 292 292 292 293 293 293 294 294 294 294 294 295 295
304 303 302 298 295 293 292 292 291 291 291 291 290 290 290 291 291 291 291 291 291 290 290 290 290 290 290 290 291 292 292 291 292 292 292 292 292 292 292 292 292 292 292 292 292 291 292 292 292 292 291 291 291 291 291 291 292 291 291 291 291 291 291 291 291 291 291 291 291 291 291 291 291 291 291 291 292 292 292 292 293 293 293 293 293 294
303 302 300 297 294 293 292 292 291 291 291 291 290 290 290 291 291 291 291 291 290 290 290 290 290 290 290 290 291 291 291 291 291 292 292 291 291 292 292 292 292 292 292 292 291 291 291 291 291 291 291 291 291 291 291 291 291 291 291 291 291 291 291 291 291 291 291 291 291 291 291 291 291 291 291 291 291 291 291 292 292 292 292 292 292 292
301 300 298 296 294 292 292 291 291 291 291 291 290 290 290 291 291 290 290 290 290 290 290 290 290 290 290 290 290 290 291 291 291 291 291 291 291 292 292 292 291 291 291 291 292 292 291 291 291 291 291 291 291 291 291 291 291 291 291 291 291 291 291 291 291 291 291 291 291 291 291 291 291 291 291 291 291 291 291 291 291 291 291 291 291 291
299 298 297 295 294 292 292 292 291 291 291 291 290 290 290 290 290 290 290 290 290 290 290 290 290 290 290 290 290 290 291 290 290 291 291 291 291 292 292 291 291 291 291 291 292 292 292 292 291 291 291 291 291 291 291 291 291 291 291 291 291 291 291 291 291 291 291 291 291 291 291 291 291 291 291 291 291 291 291 291 291 291 291 291 291 291
297 297 296 295 293 292 292 292 291 291 291 291 291 291 290 290 290 290 290 290 290 290 290 290 290 290 290 290 290 290 290 290 290 290 291 291 291 291 291 291 291 290 291 291 291 292 292 292 291 291 291 291 291 291 291 291 291 291 291 291 291 291 291 291 291 291 291 291 291 291 291 291 291 291 291 291 291 291 291 291 291 291 291 291 291 290
296 296 295 294 293 292 292 292 291 291 291 291 291 291 290 290 290 290 290 290 290 290 290 290 290 290 290 290 290 290 290 290 290 290 290 291 291 291 291 290 290 290 291 291 291 291 291 291 291 291 291 291 291 291 291 291 291 291 291 291 291 291 291 291 291 291 291 291 291 291 291 291 291 291 291 291 291 291 291 291 291 290 290 290 290 290
294 294 293 293 292 292 292 292 292 291 291 291 291 291 290 290 289 289 289 289 289 289 289 289 289 289 290 290 290 289 290 290 290 290 290 290 290 290 290 290 290 290 291 291 291 291 291 291 291 291 291 291 291 291 291 291 291 291 291 291 291 291 291 291 290 290 290 291 291 291 291 291 291 291 290 290 290 290 290 290 290 290 290 290 290 290
293 293 292 292 292 292 292 292 292 292 291 291 291 290 290 289 289 289 289 289 289 289 289 289 289 289 289 289 289 289 289 289 289 289 289 289 289 289 290 291 290 290 291 291 291 291 290 290 291 291 291 291 291 291 291 291 291 291 291 291 291 291 290 290 290 290 290 290 290 290 290 290 290 290 290 290 290 290 290 290 290 290 289 289 289 289
293 292 292 292 292 292 292 292 292 292 291 291 291 290 289 289 289 289 289 289 289 289 289 289 289 289 289 289 288 288 288 288 288 288 288 288 289 289 290 290 290 290 290 291 291 290 290 290 290 290 290 291 291 291 291 291 291 291 291 291 290 290 290 290 290 290 290 290 290 290 290 290 290 290 290 290 290 290 289 289 289 289 289 289 289 289
292 292 292 292 292 292 292 291 291 291 291 290 290 289 289 289 289 289 289 289 289 289 289 289 289 289 288 288 288 288 288 288 288 288 288 288 288 289 290 290 290 290 290 290 290 290 290 290 290 290 290 290 291 291 291 291 290 290 290 290 290 290 290 290 290 290 290 290 290 290 290 290 290 290 290 289 289 289 289 289 289 289 289 289 289 289
291 291 291 291 291 291 290 290 290 290 289 289 289 289 289 289 289 289 289 289 289 289 288 288 288 288 288 288 288 288 288 288 288 288 288 288 289 289 290 290 290 290 290 290 290 290 290 290 290 290 290 290 290 290 290 290 290 290 290 290 290 290 290 290 290 290 290 290 290 290 290 290 290 290 289 289 289 289 289 289 289 289 289 289 289 289
290 289 289 289 289 289 289 289 289 289 289 288 289 289 289 289 289 289 289 289 288 288 288 288 288 287 287 287 288 288 288 288 288 288 288 288 289 289 289 289 289 289 289 289 289 290 290 291 291 291 290 290 290 290 290 290 290 290 290 290 290 290 290 290 290 290 290 290 290 290 290 290 289 289 289 289 289 289 289 289 289 289 289 289 289 289
291 290 290 289 289 289 289 289 289 289 289 289 288 288 288 289 289 289 289 289 288 287 287 287 287 287 287 287 287 288 289 289 288 288 288 288 288 289 289 289 289 289 289 289 289 289 289 290 291 291 290 290 289 289 289 290 290 290 290 290 290 290 290 290 290 290 290 290 290 290 290 289 289 289 289 289 289 289 289 289 289 289 289 289 289 289
291 291 291 290 290 290 290 290 290 290 290 290 290 289 289 289 289 289 289 289 288 287 287 287 287 287 287 287 287 287 288 288 288 288 288 288 288 288 289 289 289 289 289 288 288 288 288 289 290 290 290 289 289 289 289 289 290 290 290 290 290 290 290 290 290 290 290 290 290 290 289 289 289 289 289 289 289 289 289 288 288 288 289 289 289 290
292 292 292 291 291 291 291 291 291 291 291 291 291 291 291 291 290 290 290 289 288 287 287 287 287 287 287 287 287 287 287 287 287 287 287 287 288 288 289 289 288 288 288 288 288 288 288 288 289 289 289 289 289 289 289 289 289 289 289 290 290 290 290 290 290 290 290 290 290 289 289 289 289 289 289 289 288 288 288 288 288 288 289 289 289 289
291 292 292 292 292 292 291 291 291 291 291 291 291 292 292 292 291 291 290 290 289 288 287 287 287 287 287 287 287 287 287 287 287 287 287 287 287 288 288 288 288 288 288 288 288 288 288 288 288 289 289 289 289 289 289 289 289 289 289 289 289 290 290 290 290 290 290 290 290 289 289 289 289 289 289 288 288 288 288 288 288 288 288 289 289 289
291 291 291 291 291 291 291 291 291 291 291 291 291 291 292 292 292 291 291 290 290 289 288 287 287 287 286 286 286 286 286 286 287 287 287 287 287 287 288 287 287 287 288 288 288 288 288 288 288 289 289 289 289 289 289 289 289 289 289 289 289 289 290 290 290 290 290 290 289 289 289 289 289 289 289 288 288 288 288 288 288 288 288 288 289 289
290 290 290 290 290 290 290 290 290 290 290 290 291 291 291 291 291 291 291 291 290 290 289 288 288 287 286 286 286 286 286 286 286 287 287 287 287 287 287 287 287 287 287 287 288 288 288 288 288 289 289 289 289 289 289 289 289 289 289 289 289 289 289 289 289 289 289 289 289 289 289 289 289 289 289 288 288 288 288 288 288 288 288 288 288 289
289 289 289 289 289 289 289 289 289 290 290 290 290 290 290 290 291 291 291 291 290 290 290 290 289 289 288 287 286 286 286 286 286 286 286 286 286 286 286 287 287 287 287 287 287 288 288 288 288 289 289 289 289 289 289 289 289 289 289 289 289 289 289 289 289 289 289 289 289 289 289 289 289 289 289 288 288 288 288 288 288 288 288 288 288 288
288 288 288 288 288 288 288 288 288 288 289 289 289 289 289 289 290 290 290 290 290 290 290 290 290 290 290 289 288 287 286 286 286 286 286 286 286 286 286 286 287 287 287 287 287 287 287 288 288 288 288 289 289 289 289 289 289 289 289 289 289 289 289 289 289 289 289 289 289 289 289 289 288 288 288 288 288 288 288 288 288 288 288 288 288 288
287 287 287 287 287 287 287 287 287 287 287 288 288 288 288 289 289 289 289 290 290 290 290 290 290 290 290 290 290 289 288 287 287 286 286 286 286 286 286 286 286 286 287 287 287 287 287 287 287 288 288 288 288 289 289 289 289 289 289 289 289 289 289 289 289 289 289 289 289 289 289 288 288 288 288 288 288 288 288 288 288 288 288 288 289 289
287 287 287 286 286 286 286 286 286 286 286 287 287 287 287 288 288 288 288 289 289 289 290 290 290 290 290 291 291 291 291 290 289 288 287 286 286 286 286 286 286 286 286 287 287 287 287 287 287 288 288 288 288 289 289 289 289 289 289 289 289 288 288 289 289 289 289 289 289 288 288 288 288 288 288 288 288 288 288 288 289 289 289 289 289 289
286 286 286 286 286 286 286 286 286 286 286 286 286 286 287 287 287 287 287 288 288 289 289 289 289 289 290 290 291 291 291 291 291 290 288 287 287 286 286 286 286 286 286 286 287 287 287 287 287 288 288 288 288 289 289 289 288 288 288 288 288 288 288 288 288 289 289 288 288 288 288 288 288 288 288 288 288 288 289 289 289 289 289 289 289 289
286 285 285 285 285 285 285 285 285 285 285 285 286 286 286 286 286 286 286 287 287 287 288 288 288 289 289 289 289 290 290 291 291 290 289 288 287 287 286 286 286 286 286 286 287 287 287 287 287 287 288 288 288 288 288 288 288 288 288 288 288 289 289 288 288 288 288 288 288 288 288 288 288 288 288 288 288 289 289 289 289 289 289 289 289 289
285 285 285 285 285 285 285 285 285 285 285 285 285 285 285 285 285 285 285 286 286 286 286 287 287 287 288 288 288 288 288 288 289 289 289 288 288 287 286 286 286 286 286 287 287 287 287 287 287 287 287 287 287 287 288 288 288 288 288 288 288 288 288 288 288 288 288 288 288 288 288 288 288 288 288 288 288 289 289 289 289 289 289 289 289 289
285 285 285 285 285 285 284 284 284 284 284 284 284 284 284 284 285 285 285 285 285 285 285 286 286 286 286 287 287 287 287 287 287 287 287 287 287 287 286 286 286 286 286 286 286 286 286 286 287 287 287 287 287 287 287 288 288 288 288 288 288 288 288 288 288 288 287 287 287 288 288 288 288 288 288 288 288 289 289 289 289 289 289 289 289 289
285 285 285 285 285 285 285 284 284 284 284 284 284 284 284 284 284 284 284 284 284 285 285 285 285 285 285 286 286 286 286 286 286 286 286 286 286 286 286 286 286 286 287 286 286 286 286 286 286 286 287 287 287 287 287 287 288 287 288 288 288 288 288 288 288 288 287 287 287 287 287 287 288 288 288 288 288 288 288 288 289 289 289 289 289 289
285 285 285 285 284 284 284 284 284 284 284 284 283 283 283 284 284 284 284 284 284 284 284 284 284 284 284 284 285 285 285 285 285 285 285 286 286 286 286 286 286 286 286 286 286 286 286 286 286 287 287 287 287 287 287 287 287 287 287 287 288 288 288 288 288 287 287 287 287 287 287 287 287 288 288 288 288 288 288 288 288 288 288 288 288 288
284 284 284 284 284 284 284 284 284 284 284 284 283 283 283 283 283 283 284 284 284 284 284 284 284 284 284 284 284 284 285 285 285 285 285 285 285 286 286 286 286 286 286 286 286 286 286 286 286 287 287 287 287 287 287 287 287 287 287 287 287 287 287 287 287 287 287 287 287 287 287 287 287 287 287 288 288 288 288 288 288 288 288 288 288 288
284 284 284 284 284 284 284 284 284 284 283 283 283 283 283 283 283 283 283 283 283 283 283 283 283 283 283 283 284 284 284 284 284 284 284 284 285 285 285 286 286 286 286 286 286 286 286 286 286 286 286 286 287 287 287 286 286 287 287 287 287 287 287 287 287 287 287 287 287 287 287 287 287 287 287 288 288 288 288 288 288 288 288 288 288 288
283 283 283 283 283 284 284 283 283 283 283 283 283 283 283 283 283 283 283 283 283 283 283 283 282 282 283 283 283 283 283 284 284 284 284 284 285 285 285 285 285 285 285 285 285 285 285 286 286 286 286 286 287 287 287 286 286 286 286 287 287 287 287 287 287 287 287 287 287 287 287 287 287 287 287 287 288 288 288 288 288 288 288 288 288 288
283 283 283 283 283 283 283 283 283 283 282 283 283 283 283 282 282 282 282 282 282 282 282 282 282 282 282 283 283 283 283 283 283 283 284 284 284 284 284 284 284 284 284 284 284 285 285 285 286 286 286 286 286 286 286 286 286 286 286 286 286 287 287 287 287 287 287 287 287 287 287 287 287 287 287 287 288 288 288 288 288 288 288 288 288 288
282 282 282 283 283 283 283 282 282 282 282 282 282 282 282 282 282 282 282 282 282 282 282 282 282 282 282 282 283 283 283 283 283 283 283 283 283 284 284 283 283 284 284 284 284 284 284 285 285 286 286 286 286 286 286 286 286 286 286 286 286 286 286 287 287 287 287 287 287 287 287 287 287 287 287 287 288 288 288 288 288 288 288 288 288 288
Wind_Speed
11 11 11 10 10 10 10 9 10 10 11 11 10 10 10 10 9 9 9 8 8 8 8 9 10 11 12 12 12 12 12 11 10 10 10 10 10 9 9 9 9 9 9 10 10 11 11 12 13 13 14 15 15 16 16 16 15 14 13 11 9 8 7 7 7 8 9 11 13 15 17 18 18 17 16 16 17 18 19 19 19 19 17 16 14 11
10 10 10 10 10 10 9 9 10 10 10 10 9 9 8 7 6 6 6 6 6 7 8 9 10 11 11 12 12 12 12 12 12 11 11 10 10 10 9 9 8 8 9 9 10 10 10 10 11 11 12 13 14 14 15 16 16 17 17 17 16 16 15 14 14 14 14 15 16 18 20 22 22 22 21 21 22 23 24 24 24 24 23 22 20 17
10 10 9 9 9 10 9 9 9 9 9 9 8 8 6 5 5 4 4 4 5 6 7 8 9 10 10 11 11 12 13 13 13 12 12 12 11 11 10 10 9 9 9 9 10 10 10 10 10 10 10 10 11 11 12 12 13 14 15 16 17 17 18 18 18 18 18 19 20 21 22 23 24 24 23 23 22 23 23 23 23 23 23 23 21 20
10 10 9 9 9 10 9 9 9 9 8 8 8 7 6 5 4 4 4 3 4 5 6 7 8 9 9 10 11 11 12 12 12 13 13 13 12 12 11 10 10 9 10 10 11 11 12 12 11 11 11 10 10 10 10 10 11 11 12 13 14 15 15 16 17 18 18 19 20 21 22 23 24 24 24 23 22 22 21 20 20 20 21 22 23 24
10 9 9 9 9 9 9 9 8 8 8 7 7 6 5 4 4 4 4 3 3 4 5 5 6 7 7 8 9 10 10 11 11 12 12 13 13 12 12 11 11 11 10 11 12 13 13 14 14 14 13 13 12 12 12 11 11 11 11 11 12 12 12 13 13 14 15 16 17 18 19 20 21 22 23 23 23 22 22 21 20 20 19 19 19 19
10 8 8 8 9 9 8 8 8 7 7 7 6 6 5 4 4 4 4 5 5 5 6 6 6 6 6 6 7 7 8 9 9 10 11 11 12 12 12 12 12 12 11 12 12 13 14 15 16 16 16 16 15 15 15 14 14 13 13 13 13 13 13 12 12 12 12 13 14 15 16 17 18 18 19 21 21 22 22 22 21 20 19 19 18 17
10 8 8 8 8 8 8 8 8 7 7 7 7 6 5 5 5 5 6 6 7 7 7 7 7 6 6 5 5 5 6 6 7 8 8 9 10 10 11 11 12 12 12 12 12 13 13 14 15 15 16 16 16 16 16 16 16 15 15 15 15 15 15 15 14 14 13 13 13 13 13 14 15 16 16 17 18 19 19 20 20 20 19 19 18 18
10 8 8 8 9 8 8 8 8 8 8 8 7 7 7 7 7 7 7 7 7 8 8 7 7 7 6 6 5 5 5 5 5 6 6 7 7 8 9 9 10 10 11 11 11 11 12 12 13 14 14 15 15 15 16 16 16 16 16 16 16 16 16 16 16 16 16 15 15 14 14 14 14 14 14 15 15 15 16 16 17 17 17 17 17 17
10 9 8 9 9 9 9 9 9 9 9 9 9 9 9 9 9 8 8 8 8 8 7 6 6 5 5 5 5 5 5 5 5 5 5 5 6 6 7 7 8 9 9 10 10 10 10 10 11 11 12 12 13 13 14 14 14 15 15 15 15 15 15 16 16 16 16 16 16 16 15 15 15 14 14 14 14 14 14 14 14 14 15 15 14 14
10 9 10 10 10 10 10 10 10 9 9 10 10 10 10 10 9 9 8 8 7 7 7 6 5 5 5 5 5 5 5 5 5 5 5 5 5 5 6 6 6 7 8 8 9 9 9 9 9 10 10 10 10 11 11 12 12 13 13 13 13 14 14 14 14 15 15 15 15 15 15 15 15 14 14 14 14 13 13 13 12 12 12 12 12 12
10 10 11 11 11 10 10 10 10 10 10 10 11 11 11 10 9 8 8 7 7 6 6 6 5 5 5 5 5 5 5 5 5 4 4 5 5 5 5 5 6 6 6 7 8 8 8 9 9 9 9 9 9 9 10 10 10 11 11 11 11 12 12 12 12 12 13 13 13 13 13 13 13 13 13 13 12 12 12 11 11 11 10 10 9 9
11 11 11 11 11 10 10 10 10 10 10 11 10 10 10 9 8 7 7 7 7 6 6 6 5 5 5 5 6 6 6 5 5 5 5 5 5 5 5 5 5 5 5 6 6 7 7 8 8 8 8 9 9 9 9 9 9 9 9 10 10 10 10 10 10 10 10 10 11 11 11 11 11 11 11 11 11 10 10 10 9 9 9 8 8 8
10 10 10 11 11 10 10 10 10 11 11 11 10 9 9 8 7 7 7 7 7 7 6 6 6 6 6 6 6 7 7 6 6 5 5 5 5 5 5 5 5 5 5 5 6 6 7 7 8 8 8 8 8 8 8 8 8 8 8 8 8 8 8 8 8 8 8 8 8 8 8 9 9 9 9 9 9 9 9 9 8 8 8 7 7 6
10 10 10 11 11 11 11 11 11 11 11 11 10 9 9 8 7 7 7 7 7 6 7 7 7 7 6 7 7 7 7 7 7 6 6 5 5 5 5 5 5 5 5 5 6 6 6 7 7 8 8 8 8 8 8 8 8 8 8 8 8 7 7 7 7 7 7 7 7 7 7 7 7 7 7 7 7 7 7 7 7 8 8 7 7 6
10 10 11 11 11 11 11 11 11 11 11 11 10 9 8 8 7 7 7 7 7 7 6 7 7 8 7 7 8 8 8 8 8 8 7 7 6 6 6 6 6 6 6 6 6 6 7 7 8 8 8 8 8 8 9 9 8 8 8 8 7 7 7 7 6 6 6 6 5 5 5 5 5 5 5 5 5 5 6 6 6 7 7 8 8 8
10 10 11 11 11 12 12 12 12 12 11 11 10 9 8 7 7 7 7 7 7 7 7 7 8 9 9 8 8 8 9 9 9 9 8 8 8 7 7 7 7 7 7 7 7 7 7 8 8 8 8 9 9 9 9 9 9 9 8 8 8 8 7 7 6 6 6 5 5 5 4 4 4 4 4 4 4 4 4 5 6 6 7 8 9 9
11 11 11 11 12 13 13 12 12 11 11 10 10 9 8 8 8 8 8 7 7 7 7 7 8 9 10 10 9 8 9 9 10 9 9 9 9 8 8 8 8 9 8 8 8 8 8 8 8 8 9 9 9 9 9 9 9 9 9 8 8 8 8 7 7 6 6 5 5 5 4 4 4 4 4 4 4 4 4 4 5 6 6 7 8 9
12 12 11 12 12 13 13 12 12 11 11 10 10 9 9 9 9 8 8 8 8 8 8 8 8 9 9 11 10 8 8 9 10 9 9 9 9 9 9 9 9 9 9 9 9 9 9 9 9 9 9 9 9 9 9 9 9 9 8 8 8 8 8 8 8 7 7 6 6 5 5 5 5 4 4 4 4 4 4 4 5 5 6 6 7 8
13 13 12 12 13 13 13 12 12 11 11 11 10 10 10 9 9 9 9 9 8 9 9 9 9 9 10 11 10 8 8 9 10 10 10 10 9 9 9 9 10 10 10 9 9 10 10 10 10 10 10 10 9 9 9 9 9 9 8 8 8 8 8 7 7 7 7 7 7 7 6 6 5 5 5 5 5 5 5 5 5 5 5 6 7 7
13 13 13 13 13 13 13 13 12 12 11 11 11 11 10 10 10 10 10 10 10 9 9 10 10 10 10 10 10 9 8 9 10 10 10 10 10 9 9 10 10 11 11 10 10 10 10 10 11 11 10 10 10 10 10 9 9 9 9 8 8 8 7 7 7 7 7 7 7 7 7 7 6 6 6 5 5 5 5 5 6 6 6 7 7 8
13 14 15 15 14 13 13 14 13 13 12 12 11 11 11 11 11 11 11 11 11 10 10 11 11 11 10 10 10 9 9 9 10 10 11 11 10 10 9 10 11 12 12 11 10 10 10 11 11 11 11 11 11 11 10 10 10 10 9 9 9 8 8 7 7 6 6 6 6 6 6 7 7 6 6 6 6 6 6 6 7 7 7 8 8 9
14 16 17 16 15 14 14 14 14 13 13 12 12 12 12 11 11 11 11 11 11 11 11 12 11 11 10 10 10 9 9 9 10 10 11 12 12 11 10 10 11 12 13 12 12 11 11 11 11 11 11 11 11 11 11 11 11 11 10 10 10 9 9 8 8 8 7 6 6 6 6 6 6 6 6 6 7 7 7 7 7 8 8 9 9 10
15 17 16 16 16 15 15 14 14 14 13 13 13 12 12 12 12 12 11 11 11 12 12 12 12 11 11 11 11 10 10 10 10 10 10 12 13 12 10 11 12 13 13 13 12 12 12 12 12 12 12 12 12 12 12 11 11 11 11 11 10 10 10 10 9 9 8 8 7 7 6 6 6 6 6 6 7 7 7 8 8 8 9 9 10 11
16 16 16 16 16 16 15 15 15 14 14 14 14 13 14 13 13 13 12 12 12 12 12 12 12 12 12 12 12 12 11 10 10 10 11 12 13 12 11 11 12 13 13 13 13 13 13 13 13 13 13 13 12 12 12 12 12 11 11 11 10 10 10 10 10 10 10 9 9 8 8 7 7 7 7 7 7 7 8 8 8 9 9 10 10 11
14 15 16 16 16 16 16 15 15 15 14 14 14 14 14 14 14 13 13 13 13 12 12 12 13 13 13 12 13 13 12 11 11 11 12 13 14 13 11 11 12 13 14 13 13 14 14 14 14 13 13 13 13 13 12 12 12 12 11 11 10 10 10 10 10 11 11 10 10 10 9 9 9 8 8 8 8 8 8 8 8 9 9 10 10 11
13 13 14 14 15 15 15 15 15 15 15 15 15 14 14 14 13 13 13 13 12 12 12 12 12 13 13 13 13 13 12 12 12 12 12 13 14 15 13 12 12 13 14 14 14 14 15 15 15 14 14 14 13 13 13 13 12 12 12 11 11 10 10 10 11 11 11 11 11 11 11 11 10 10 9 9 9 8 8 8 8 8 9 9 10 10
11 12 12 13 14 15 15 15 15 15 16 16 16 16 15 14 13 12 11 12 12 12 12 11 11 12 13 13 14 13 13 13 13 12 12 13 14 15 14 13 13 14 15 15 15 15 15 15 15 15 15 14 14 14 13 13 13 13 12 12 11 11 11 11 11 11 11 12 12 12 12 12 12 11 11 10 10 9 9 8 8 8 8 9 9 9
11 12 13 13 14 15 15 15 15 15 16 16 17 17 16 15 13 11 11 12 12 13 12 11 11 12 13 14 14 13 12 13 13 13 12 13 14 15 15 14 14 14 15 16 15 15 15 15 15 15 15 14 14 14 14 14 14 13 13 13 12 12 12 11 12 12 12 12 12 12 13 12 12 12 12 11 10 10 9 8 8 8 8 9 9 9
12 13 13 14 15 15 15 15 15 15 15 15 16 17 17 16 15 13 13 13 12 12 12 12 12 13 14 14 14 13 13 13 13 12 12 13 14 15 14 15 14 15 15 16 16 16 16 15 15 15 14 14 14 15 15 15 14 14 14 13 13 12 12 12 12 12 13 13 13 13 13 13 13 12 12 11 11 10 9 8 8 8 8 9 9 9
14 14 15 15 16 16 16 15 15 15 14 14 14 15 16 16 16 15 15 14 13 12 11 12 13 14 14 14 13 13 13 14 13 12 12 13 14 15 15 15 15 15 15 16 17 17 17 16 15 14 14 14 14 15 15 15 15 15 14 14 13 13 13 13 13 13 13 13 13 13 13 13 13 13 12 12 11 10 9 8 8 8 9 9 9 9
16 16 17 17 17 18 18 18 17 17 16 15 14 14 14 15 16 16 16 15 14 13 11 11 12 13 13 12 11 10 11 14 13 11 12 13 14 15 15 16 15 15 15 15 15 15 15 16 16 15 14 14 15 16 16 16 16 16 15 15 15 14 14 13 13 13 13 13 13 13 13 13 13 13 12 12 11 10 9 9 9 9 9 10 10 10
16 17 18 18 19 19 20 20 20 20 20 19 18 17 16 15 16 16 17 17 16 14 12 12 12 12 12 11 11 10 11 14 14 13 13 14 15 16 16 16 16 15 14 14 14 13 11 14 16 17 15 15 16 16 16 16 17 17 16 16 16 15 15 15 14 14 14 14 14 13 13 13 13 13 12 12 11 11 10 9 9 9 10 10 10 10
16 17 18 19 19 19 20 21 21 21 21 21 21 20 19 18 17 17 17 18 17 16 14 13 12 12 12 12 12 13 14 15 15 14 14 14 15 16 16 16 16 16 15 14 14 14 13 16 17 17 16 16 16 16 17 17 17 17 17 17 17 17 16 16 16 15 15 15 14 14 14 13 13 13 12 12 12 11 10 10 10 10 10 11 11 11
16 17 17 18 18 19 19 20 20 20 20 21 21 21 21 20 19 18 18 18 18 17 16 15 14 13 13 13 13 13 13 15 16 15 15 15 15 16 17 17 16 16 15 14 14 14 15 16 16 17 16 16 15 16 16 17 17 18 18 18 18 17 17 17 16 16 15 15 15 15 14 14 14 13 13 12 12 11 11 10 10 10 11 11 11 11
16 16 16 17 17 17 18 18 18 18 19 19 19 20 20 20 20 19 18 18 18 18 18 17 17 16 16 15 15 14 13 15 16 15 15 15 15 16 17 17 16 16 15 15 14 14 14 15 15 15 16 15 15 15 15 16 16 17 18 18 18 18 17 17 16 16 16 16 15 15 15 15 14 14 13 13 12 12 11 11 11 11 11 11 12 12
15 15 15 15 15 15 15 15 16 16 16 17 17 17 18 18 19 19 19 18 18 18 18 18 19 19 18 18 17 16 15 16 16 16 16 15 15 16 17 17 16 15 15 15 14 14 14 14 14 14 14 15 15 15 14 14 15 16 17 18 19 18 18 17 17 16 16 16 16 16 15 15 15 14 14 13 13 12 12 11 11 11 12 12 12 12
15 14 13 12 12 12 12 13 13 14 14 14 15 15 16 17 17 18 18 18 18 18 18 19 19 20 20 20 19 18 17 17 16 16 16 16 16 16 17 17 16 15 15 15 14 14 14 14 14 13 13 14 14 14 14 14 14 15 16 17 18 18 18 18 17 17 17 16 16 16 16 16 15 15 14 14 13 13 13 12 12 12 12 12 12 12
14 13 11 11 10 10 10 10 11 11 12 12 13 14 15 15 16 17 18 18 18 18 18 19 19 20 20 20 20 19 18 17 17 17 16 16 16 16 16 16 16 15 15 14 14 14 14 14 14 14 13 13 14 14 14 14 14 14 15 16 17 18 18 18 18 18 17 16 16 16 16 16 15 15 15 14 14 14 14 14 13 13 13 13 13 13
13 12 10 10 9 9 9 10 10 10 11 12 13 13 14 15 16 17 17 18 19 19 19 18 18 19 19 20 20 19 19 18 18 17 17 16 16 16 15 15 15 15 15 15 14 14 14 14 14 14 14 13 13 13 13 13 13 13 14 15 16 17 18 18 18 18 17 17 17 17 17 16 16 16 15 15 15 15 15 15 14 14 14 14 14 14
12 11 10 10 10 10 10 10 11 11 12 13 13 14 14 15 15 16 17 17 18 18 18 18 18 18 18 19 19 19 19 19 19 18 18 17 16 15 15 15 15 15 15 15 14 14 13 13 13 13 13 13 13 13 13 12 12 13 13 14 14 15 17 18 18 18 17 17 17 17 17 17 16 16 16 16 16 16 16 15 15 15 15 15 15 15
11 11 11 11 11 11 12 12 13 13 13 14 14 14 14 14 15 15 15 16 16 16 17 16 16 17 17 17 18 18 19 19 18 18 18 17 16 15 15 14 14 15 15 15 15 14 13 13 13 13 12 12 13 12 12 12 12 12 13 13 14 15 16 17 17 18 18 18 17 17 17 17 17 17 17 17 17 16 16 16 16 16 16 16 16 16
11 11 11 11 12 12 13 13 14 14 14 14 14 15 14 14 14 15 15 15 16 16 16 15 15 15 15 16 16 17 17 17 17 17 17 16 16 15 15 15 14 14 15 15 15 14 13 12 12 12 12 12 12 13 12 12 12 12 13 13 14 15 16 16 17 17 17 17 17 17 17 17 18 18 18 18 17 17 17 17 17 17 17 17 17 17
12 12 12 12 12 13 13 13 14 14 14 14 15 15 15 15 15 15 15 15 15 15 15 15 15 15 15 15 15 15 16 16 16 16 16 16 15 15 15 15 14 14 14 14 13 13 12 12 11 11 11 11 12 13 13 13 13 13 13 13 13 14 14 14 15 16 17 17 17 17 18 18 18 18 18 18 18 18 18 18 18 18 18 18 18 19
13 13 13 13 13 13 14 14 14 14 14 14 14 15 15 15 15 15 15 15 15 14 14 14 15 15 15 16 15 15 15 15 15 16 16 15 15 15 15 14 14 14 13 13 12 11 11 11 11 11 11 11 12 13 14 14 13 13 13 13 13 13 13 13 14 15 16 16 17 17 18 18 18 18 18 18 18 19 19 19 19 19 19 19 19 20
14 14 15 15 15 15 15 15 15 15 15 15 15 15 15 16 16 15 15 15 14 14 14 14 14 14 15 15 15 15 14 14 14 14 15 15 14 14 14 14 13 13 12 12 11 11 11 11 11 11 11 12 12 12 13 13 13 12 12 12 12 13 13 13 14 14 14 15 16 16 17 18 18 18 19 19 19 19 20 20 20 20 20 20 21 21
15 16 16 16 16 17 17 17 17 16 16 16 15 15 15 16 16 15 15 14 14 14 13 13 13 13 14 14 14 15 14 13 12 12 13 13 14 14 13 13 13 12 12 12 11 11 10 10 10 11 11 11 11 11 10 10 11 11 11 11 11 11 12 12 12 13 13 13 14 15 16 17 18 18 18 19 19 20 20 21 21 21 21 21 22 22
16 17 17 17 18 18 18 18 18 18 18 17 17 16 16 16 15 15 14 14 14 13 13 13 13 13 13 14 14 14 13 12 10 10 11 12 13 13 13 13 13 12 12 12 12 11 11 10 9 9 9 10 11 10 9 9 9 9 9 9 10 10 10 10 11 11 12 12 13 14 15 16 17 17 18 19 20 20 21 21 20 21 21 21 22 22
17 18 18 19 19 19 19 19 19 19 19 18 18 17 16 16 15 14 13 13 12 12 13 13 13 13 14 14 14 14 14 13 11 10 10 11 12 12 13 13 12 12 12 12 11 11 11 10 9 8 8 9 9 9 8 7 7 7 8 8 9 10 10 10 10 11 11 12 13 14 15 16 16 17 18 19 20 21 21 20 20 20 20 20 21 21
18 19 19 20 20 20 20 19 19 19 19 18 17 17 16 15 14 13 12 11 11 12 13 13 13 14 14 14 15 15 14 13 12 11 11 11 11 11 11 11 10 10 10 11 11 11 11 10 9 8 7 7 7 8 7 6 6 7 8 8 9 10 10 11 11 11 12 12 13 14 15 16 17 18 19 20 21 21 21 20 20 19 19 19 20 20
19 19 19 20 20 20 20 19 19 18 18 17 16 15 14 13 13 12 11 11 12 13 14 15 15 14 15 15 14 14 13 12 12 11 10 10 10 10 9 8 7 7 8 9 10 10 10 9 8 7 6 5 5 6 6 6 7 7 8 9 9 10 11 11 11 12 12 13 14 15 16 17 17 18 19 20 21 21 21 21 20 19 18 18 19 20
18 18 18 19 19 19 19 18 17 16 15 14 13 12 11 11 11 11 12 13 14 16 16 17 16 15 14 14 13 12 11 10 10 9 9 9 9 8 7 6 6 7 8 9 9 8 7 7 8 7 6 5 5 4 6 7 8 9 10 10 10 11 11 12 12 12 12 13 14 15 15 16 17 17 18 19 20 21 21 21 20 19 19 18 19 20
Wind_Direction
298 300 301 302 303 304 306 311 313 314 314 316 317 320 321 323 325 327 331 336 344 352 359 3 4 2 359 356 355 355 356 358 0 3 7 11 14 17 20 23 28 34 39 44 47 47 45 43 41 40 41 41 42 43 43 43 44 45 47 51 58 67 79 90 98 102 101 98 93 86 79 74 72 74 78 82 85 86 87 88 87 85 83 82 81 81
289 291 293 295 296 297 299 304 308 308 308 308 310 313 318 324 329 335 340 352 5 14 17 19 18 16 13 12 11 12 11 10 10 11 15 18 21 23 24 25 28 34 42 48 53 55 56 55 54 52 51 50 50 49 49 48 49 50 52 56 61 66 73 80 86 91 95 97 96 93 88 83 79 77 78 81 83 85 87 88 90 91 91 92 93 95
281 283 286 288 289 290 290 295 300 303 304 303 303 307 311 318 327 336 345 2 19 26 26 26 26 25 24 24 25 26 24 22 20 20 22 24 28 29 30 30 30 34 40 47 52 56 58 60 61 61 60 58 57 55 53 51 50 49 50 52 55 60 65 70 75 81 87 91 94 95 95 92 89 85 81 78 78 80 82 86 90 93 95 97 100 105
271 276 278 281 284 285 285 288 292 298 302 301 300 301 303 307 313 322 331 349 12 22 24 24 25 27 28 31 34 36 35 34 31 30 29 30 32 34 36 37 38 39 43 48 52 55 58 60 61 62 62 62 60 59 57 56 55 53 52 51 51 52 55 59 64 70 76 81 86 91 93 95 94 92 87 81 76 74 73 77 82 87 92 96 99 101
261 266 270 274 278 281 285 286 288 293 298 296 291 288 291 296 302 310 318 331 344 354 1 7 12 16 21 29 34 38 39 40 40 39 37 35 35 37 40 42 45 47 50 52 55 57 59 59 60 60 60 60 60 60 60 59 59 60 61 61 60 58 56 55 56 58 62 68 73 78 83 87 90 92 91 88 83 78 74 73 74 78 84 89 92 92
254 255 261 269 274 278 283 283 284 286 287 283 277 274 275 283 291 298 306 314 321 327 332 337 344 350 358 11 22 29 33 37 40 41 40 39 38 38 40 43 46 49 53 56 59 61 61 60 59 58 58 58 58 59 60 60 60 62 64 67 69 70 69 68 66 63 61 62 64 67 70 74 77 81 85 88 88 87 84 81 79 78 79 81 82 82
247 244 251 262 271 277 281 281 278 275 271 269 267 267 270 275 282 287 295 303 309 314 319 323 326 329 332 340 351 1 10 19 25 30 34 36 37 37 39 40 42 45 49 53 58 61 62 62 60 58 57 56 56 57 58 59 61 62 64 66 68 70 71 73 75 75 75 73 71 70 69 69 70 71 74 78 83 87 89 89 88 86 86 85 85 85
245 239 244 255 263 268 272 271 268 264 261 260 262 266 272 275 279 283 288 294 300 305 311 316 319 322 324 326 329 333 340 348 358 7 15 20 25 28 32 34 36 38 40 44 48 53 57 59 59 58 56 55 54 54 55 57 59 61 62 64 65 66 68 70 72 75 76 78 79 79 78 77 76 74 73 73 76 79 84 88 90 91 92 92 93 94
244 244 247 253 258 260 258 257 257 256 255 258 262 267 271 276 280 283 286 290 294 299 303 309 315 321 325 328 329 329 329 332 338 345 351 356 2 9 14 20 25 28 30 32 34 39 43 48 51 52 52 52 52 52 52 54 56 58 60 62 63 64 65 67 68 70 71 73 75 77 79 80 80 80 80 79 79 79 81 83 85 88 90 91 93 95
238 245 251 253 255 255 252 251 252 254 256 260 264 268 271 274 278 283 287 290 293 295 298 303 310 319 329 334 337 338 338 338 338 340 343 346 348 351 355 1 8 15 20 21 22 24 27 32 36 39 42 45 46 47 48 50 52 54 56 58 60 62 63 64 64 65 66 67 68 69 70 72 73 76 77 79 80 82 82 84 85 86 87 87 87 88
236 240 248 252 253 252 250 250 253 257 261 265 268 270 272 272 275 281 287 291 294 297 299 303 308 318 329 339 343 347 348 350 350 351 352 353 352 348 346 348 354 2 9 13 14 14 16 19 22 25 28 32 35 38 41 43 45 47 49 52 54 56 58 59 60 61 61 61 61 61 61 61 62 63 65 67 69 72 75 78 80 82 82 82 82 82
238 240 246 252 253 252 251 253 257 262 266 268 268 269 269 271 273 280 287 290 295 301 305 308 311 317 327 338 344 348 349 353 356 359 3 4 2 358 352 350 352 356 3 7 8 8 9 12 13 15 17 20 23 27 30 33 36 38 41 43 45 47 49 52 54 55 56 56 56 56 55 54 53 52 52 52 52 53 55 58 62 65 68 70 71 72
237 240 246 251 252 253 255 259 264 268 269 267 264 264 268 271 275 279 286 289 294 300 306 310 314 319 325 332 340 345 348 350 351 356 1 6 7 5 1 0 0 3 5 7 6 5 6 8 9 10 10 12 13 15 18 21 25 27 30 32 34 36 38 40 43 46 48 50 51 51 51 50 49 47 45 42 40 38 37 36 37 38 41 45 50 55
237 239 245 250 253 255 260 265 269 270 269 266 263 262 265 269 274 279 284 287 291 297 302 309 314 319 324 329 336 341 345 347 348 350 355 359 3 4 4 4 6 8 8 8 7 4 3 4 5 6 6 5 6 6 8 10 12 14 17 20 22 24 26 28 30 33 35 38 40 42 44 45 45 44 41 37 33 29 25 21 18 15 13 13 14 17
240 241 246 250 254 259 265 270 272 271 269 267 265 264 265 268 273 278 283 288 291 294 300 307 313 318 321 326 332 337 341 343 344 346 348 351 355 358 359 1 4 6 6 6 5 3 1 0 359 0 1 0 359 359 359 0 1 2 4 6 8 10 12 15 18 20 22 24 25 27 30 32 34 35 34 31 26 21 16 11 6 0 356 352 349 347
243 243 246 250 257 263 270 273 273 271 270 268 267 267 268 271 275 277 280 284 287 292 300 309 315 317 318 321 327 333 336 339 340 341 340 342 346 350 352 354 357 359 0 359 358 357 356 356 355 354 354 353 353 353 353 352 353 353 353 354 355 357 358 0 3 5 8 9 9 9 9 10 12 14 14 13 10 7 3 358 354 349 345 341 338 334
245 245 246 251 259 267 273 275 274 272 271 271 270 269 269 271 273 274 276 279 283 289 296 304 309 311 310 315 321 327 332 333 333 333 333 335 338 342 345 347 348 350 352 352 351 349 349 348 348 348 347 347 346 345 345 345 345 345 345 345 346 346 347 347 349 351 352 353 353 352 351 349 347 345 344 343 342 342 342 340 339 337 334 332 330 327
247 246 247 254 262 270 274 275 274 272 272 272 271 270 268 268 269 270 272 274 280 286 291 295 299 301 300 303 309 320 326 325 325 326 326 327 330 334 337 339 340 342 344 344 344 343 341 340 340 341 340 340 339 338 338 338 338 338 338 338 338 339 339 338 338 339 340 340 340 338 337 335 332 329 325 323 321 319 318 319 319 319 319 318 318 317
249 247 248 256 263 269 272 272 272 271 271 271 270 269 269 268 268 267 268 269 273 279 284 288 290 293 295 295 300 310 317 318 318 318 318 319 322 326 329 331 332 334 336 337 336 336 335 334 335 335 334 334 333 332 332 332 331 331 331 331 331 331 331 331 331 331 331 330 330 329 328 326 324 319 316 312 308 305 303 301 299 298 298 297 298 298
248 248 250 255 262 267 270 268 266 266 266 266 266 267 268 269 268 268 267 267 268 271 275 280 285 288 290 294 299 303 306 309 310 311 310 311 314 319 323 324 325 325 327 330 331 330 329 328 329 330 329 329 328 328 328 327 327 326 326 325 324 324 323 322 322 322 322 322 322 322 321 321 319 316 313 308 303 298 293 289 285 282 280 277 276 276
246 249 249 253 258 262 264 264 263 262 263 265 265 266 267 268 269 269 269 269 269 271 273 277 281 285 289 293 295 295 297 300 302 303 305 306 309 314 317 319 319 319 320 323 325 325 325 324 325 326 326 326 326 325 325 324 324 323 323 322 320 319 318 316 315 313 312 311 312 312 313 313 313 312 310 307 303 297 291 286 281 277 274 271 268 267
243 247 249 251 254 256 257 259 260 261 262 264 264 264 265 267 268 269 269 270 271 273 275 277 280 282 284 287 289 289 289 292 295 298 300 301 304 308 313 313 314 314 315 318 320 322 321 322 322 322 323 323 323 323 323 322 322 321 321 320 319 317 316 315 312 310 308 306 305 304 302 302 302 302 301 299 297 294 290 286 282 278 274 271 268 266
240 245 249 252 253 253 254 255 257 258 260 262 262 262 263 265 267 269 269 270 271 273 275 276 277 278 279 281 283 284 284 287 290 294 295 296 299 303 308 309 308 309 310 314 316 317 318 318 320 320 320 320 321 321 320 320 319 319 319 319 318 317 316 314 313 312 310 308 306 304 301 298 296 293 292 290 289 288 286 283 281 278 275 271 269 267
241 245 248 250 251 251 252 252 254 256 259 260 262 263 264 266 268 269 269 269 271 273 274 275 276 277 277 279 280 281 281 283 286 289 291 291 294 299 304 305 304 304 306 310 312 313 314 315 317 318 318 318 318 318 318 317 317 318 318 317 317 316 315 314 313 312 311 310 309 307 305 301 299 295 291 289 286 284 282 280 278 275 272 270 267 265
245 247 248 250 251 252 252 253 254 256 259 261 262 264 266 267 269 271 271 272 273 274 274 275 276 277 277 277 278 279 279 280 282 285 287 289 292 296 300 301 300 300 303 306 309 310 310 311 313 314 315 315 315 315 315 315 316 316 316 316 316 315 314 313 312 311 311 310 310 309 307 306 303 299 296 292 288 285 281 278 275 272 268 266 264 262
250 251 251 251 252 252 253 254 256 258 260 262 264 265 266 268 271 273 274 275 274 273 272 272 274 276 276 276 276 277 278 277 279 281 283 286 289 292 296 297 298 298 300 303 305 306 307 308 310 311 312 311 312 312 312 312 313 313 314 314 314 313 313 311 310 309 308 308 308 307 306 305 303 301 298 295 291 287 282 278 273 268 264 261 259 258
253 252 250 250 251 251 253 254 257 259 262 264 266 266 267 269 272 274 276 274 272 270 269 270 273 276 277 278 277 276 275 275 275 277 280 282 285 287 291 294 295 296 298 300 302 303 303 305 307 308 308 308 308 308 309 309 310 310 311 311 311 311 310 308 306 305 305 304 304 303 303 302 301 299 297 295 292 288 284 278 271 265 260 256 253 251
267 263 261 259 258 258 258 259 260 261 263 265 267 268 269 270 271 273 274 272 271 270 271 271 275 278 279 279 277 274 272 272 272 275 278 279 280 283 287 291 292 293 295 297 298 299 300 302 303 304 304 305 305 306 306 307 307 308 308 309 308 308 307 305 304 303 302 301 300 300 299 298 297 296 294 293 290 288 283 277 269 261 255 250 247 245
286 283 280 277 275 273 272 271 269 268 268 268 269 270 271 270 269 269 271 272 273 276 277 276 275 275 276 276 275 274 274 273 272 274 276 277 278 280 284 287 289 290 293 296 297 298 298 299 299 300 300 301 302 302 303 304 305 305 306 306 306 305 305 304 303 302 301 301 300 299 298 296 294 293 291 290 288 285 281 274 266 256 250 245 242 239
294 292 290 288 286 285 284 283 282 280 278 276 276 276 275 274 272 271 273 274 275 278 280 279 276 275 276 277 280 283 283 277 274 273 275 276 278 280 282 284 287 289 292 296 299 301 302 300 299 299 299 299 300 300 301 303 303 304 304 305 305 305 305 305 304 303 303 302 301 299 298 296 293 291 290 288 285 282 278 271 261 252 246 242 240 237
291 290 288 287 287 287 286 285 284 284 283 282 282 282 281 279 278 277 277 276 276 277 277 276 275 274 276 278 284 290 291 280 275 274 275 277 278 279 281 284 286 288 290 294 298 303 304 301 300 301 301 300 299 300 301 301 303 303 304 304 305 306 306 306 305 305 304 303 302 300 298 296 293 291 289 287 284 280 275 268 259 251 246 243 241 239
285 284 283 283 284 284 283 282 282 281 281 280 280 280 280 279 278 277 277 277 276 277 276 274 273 273 273 274 274 277 281 280 278 276 277 278 278 278 280 283 285 287 288 288 290 292 293 292 295 300 302 301 300 299 300 301 302 303 303 304 305 306 306 306 306 305 305 304 303 302 299 296 294 291 288 286 283 278 273 266 258 251 248 246 244 242
280 280 280 281 282 282 282 282 281 280 279 278 277 276 275 274 272 271 271 272 274 277 278 276 276 275 274 273 272 273 277 280 280 278 278 279 279 279 279 281 283 285 285 284 283 281 281 284 289 294 297 298 298 298 299 301 301 301 302 302 303 303 304 304 305 305 305 305 304 303 300 298 294 291 288 285 282 278 273 267 260 254 251 250 249 248
279 279 279 280 281 282 282 282 282 281 280 278 277 275 272 270 267 265 264 265 268 271 276 279 281 281 282 280 279 280 282 281 279 277 278 279 279 279 278 280 282 283 283 283 282 280 280 281 285 289 292 294 295 295 297 298 298 299 299 299 299 300 301 302 303 303 303 303 303 302 301 298 295 292 288 285 282 278 274 268 262 257 254 253 253 254
285 282 281 280 280 280 281 281 281 280 279 278 276 274 271 268 264 261 259 258 259 263 269 276 281 284 286 287 286 285 284 280 277 276 277 277 277 277 278 279 281 281 282 282 282 282 281 281 283 286 290 292 293 294 293 294 295 295 295 296 297 297 298 300 300 301 301 301 301 300 299 298 295 292 289 285 282 278 274 270 265 260 258 256 256 257
294 289 284 280 279 278 278 277 277 277 277 276 275 273 270 267 263 259 256 253 253 255 260 267 275 281 285 287 288 287 285 281 278 276 276 275 275 276 277 279 279 280 281 281 281 281 281 282 282 284 287 290 292 293 292 292 292 292 293 294 295 296 297 298 299 300 300 300 300 299 297 296 295 292 290 287 283 279 276 271 267 264 261 260 259 260
299 293 288 283 280 278 277 277 276 275 274 273 273 272 269 266 262 259 255 252 250 251 253 258 265 272 278 283 286 288 288 285 282 279 276 275 273 274 275 277 278 279 279 280 280 280 280 282 284 285 286 287 289 291 292 292 292 292 291 293 294 295 296 297 297 298 298 298 298 297 296 295 294 293 290 288 285 282 279 275 272 269 267 265 265 265
298 292 289 287 285 283 283 282 280 278 276 275 274 273 271 268 264 261 257 253 251 250 251 253 256 261 267 273 279 284 288 288 286 283 279 276 273 273 274 276 277 278 278 278 277 277 280 282 285 287 287 287 287 289 291 292 293 293 293 292 292 293 295 295 296 296 296 297 296 295 294 294 293 292 290 288 286 284 282 280 277 275 274 272 271 271
295 290 288 289 289 290 290 289 287 284 281 279 278 276 273 271 268 264 261 257 255 253 252 251 252 254 257 262 267 274 279 283 285 285 282 279 275 274 274 275 276 277 277 276 275 276 278 280 282 284 286 286 287 288 289 291 292 292 292 291 291 292 292 293 293 293 294 294 294 293 292 292 292 291 289 288 286 285 284 282 281 281 279 278 277 276
293 289 287 288 289 290 290 289 289 287 285 282 280 278 277 276 275 272 268 264 260 257 255 253 252 252 252 253 257 261 266 272 278 282 284 282 279 276 274 274 275 275 275 275 274 274 275 277 278 280 282 284 286 288 289 290 291 290 290 291 291 290 290 289 289 290 291 291 290 289 289 289 289 288 287 286 284 283 283 283 283 283 283 282 282 282
296 292 291 290 291 291 290 290 291 291 289 288 287 285 284 283 283 282 279 275 271 268 265 262 260 259 257 256 255 256 258 262 268 275 280 283 282 278 275 273 273 273 272 273 272 272 271 272 275 278 281 284 286 287 288 290 291 290 288 288 287 286 285 285 285 286 287 287 286 285 285 285 284 284 283 283 282 281 282 282 282 282 283 283 282 282
302 300 299 299 298 297 296 297 297 296 295 294 293 293 291 290 290 289 289 287 285 282 279 277 275 273 272 270 267 264 263 264 267 271 276 280 281 280 277 274 272 271 270 271 271 271 271 272 274 279 283 287 289 290 290 290 290 289 287 284 283 282 282 281 281 282 282 281 281 281 280 279 278 278 279 279 279 279 280 280 280 279 280 281 281 281
305 305 306 306 305 304 304 303 303 302 302 302 302 301 299 297 295 294 293 292 291 291 290 288 286 284 282 281 279 277 276 275 275 276 278 280 281 281 279 276 272 269 268 268 270 272 275 278 280 284 287 290 290 291 292 292 290 287 285 283 281 281 280 279 278 278 276 275 275 275 274 273 273 274 275 276 276 277 277 277 277 277 278 278 279 279
303 304 306 307 307 307 307 307 307 308 308 307 307 306 306 303 301 299 299 296 295 295 295 295 293 291 290 289 288 287 286 284 283 283 282 282 282 281 279 276 273 270 268 267 269 275 281 284 286 289 290 290 290 290 291 291 289 286 284 282 279 276 274 274 274 273 272 271 271 271 270 270 271 272 273 273 274 274 274 274 275 275 276 277 277 277
299 301 303 304 306 307 307 308 309 309 309 308 307 307 306 305 303 302 301 300 299 299 299 299 299 298 297 296 294 293 293 291 288 286 285 284 282 281 279 276 274 273 272 270 270 273 279 284 287 290 291 289 287 288 289 289 288 285 283 281 279 276 274 273 272 270 269 268 267 267 267 268 269 270 271 271 271 271 271 272 273 274 275 276 276 277
294 296 298 301 302 304 305 306 307 306 306 306 306 305 304 303 302 302 302 302 301 302 302 302 302 301 300 298 297 296 296 295 292 288 285 284 283 281 279 277 275 275 275 275 277 279 282 285 288 290 290 289 287 286 286 286 286 284 282 280 279 276 275 274 272 270 268 266 264 264 265 267 268 268 269 270 270 270 270 271 272 273 275 275 276 276
289 291 294 296 298 299 301 302 303 304 304 304 305 304 303 302 301 301 301 302 302 302 302 302 302 300 298 297 296 296 297 295 291 285 281 279 279 279 279 277 277 277 278 280 283 287 289 290 289 289 289 289 289 289 289 286 284 282 281 280 279 277 276 275 273 272 270 268 265 264 266 267 268 269 269 270 270 270 271 272 273 273 274 275 275 275
284 286 288 290 292 294 296 298 300 301 303 304 304 304 303 301 300 300 300 299 298 298 298 298 299 298 297 296 295 295 295 294 289 282 275 273 273 274 275 276 278 281 284 288 290 292 293 294 293 291 289 287 286 285 286 284 282 280 279 279 278 277 274 273 272 272 272 270 269 268 269 270 271 272 273 273 274 274 274 274 274 274 275 275 274 274
279 281 283 285 287 289 291 294 296 298 300 302 303 304 304 303 302 301 300 296 293 291 292 294 294 294 293 292 292 293 293 292 289 285 280 276 273 272 272 274 279 285 290 292 294 295 297 297 296 293 290 286 282 280 278 277 278 280 280 280 279 278 276 274 273 272 272 272 271 271 271 272 274 275 277 278 279 279 279 278 277 277 276 276 275 274
276 279 281 282 284 286 288 290 292 294 297 300 303 306 307 308 307 306 301 294 290 289 291 293 292 291 289 288 288 288 288 289 289 289 289 286 282 278 274 274 277 281 284 286 288 291 295 298 298 296 294 288 281 278 278 280 283 285 284 284 283 282 280 279 277 275 274 273 273 273 274 274 275 276 278 280 282 282 282 281 280 279 278 278 278 277
277 279 282 284 285 286 287 289 291 293 296 300 303 307 307 305 302 297 292 288 288 290 292 294 293 291 288 287 285 284 283 283 283 284 284 283 281 279 276 273 273 274 277 282 286 291 296 300 301 299 295 284 279 278 279 286 292 293 293 293 291 290 288 286 284 282 280 279 279 278 278 279 279 280 281 283 285 287 287 287 285 283 282 282 282 283